• în România
  • Lista ţărilor
  • Pe 7 zile
  • Temperatura apei
  • Hartă satelitară
  • Meteo pe hartă
  • Widget-uri
  • user-avatar
    Intrare

    Meteo pe oră la Kipungo

    Astăzi, 27 Iulie, Joi

    Timp Temperatura Precipitaţii Vânt Presiune Umiditate
    00:00 +16°C° 0 mm 1 m/s 654 mmHg 31%
    01:00 +14°C° 0 mm 0 m/s 654 mmHg 32%
    02:00 +13°C° 0 mm 0 m/s 654 mmHg 33%
    03:00 +13°C° 0 mm 0 m/s 654 mmHg 33%
    04:00 +12°C° 0 mm 0 m/s 654 mmHg 34%
    05:00 +12°C° 0 mm 0 m/s 654 mmHg 35%
    06:00 +13°C° 0 mm 1 m/s 654 mmHg 36%
    07:00 +14°C° 0 mm 1 m/s 655 mmHg 35%
    08:00 +18°C° 0 mm 2 m/s 656 mmHg 30%
    09:00 +21°C° 0 mm 2 m/s 656 mmHg 26%
    10:00 +25°C° 0 mm 3 m/s 657 mmHg 21%
    11:00 +27°C° 0 mm 3 m/s 657 mmHg 19%
    12:00 +29°C° 0 mm 3 m/s 657 mmHg 16%
    13:00 +31°C° 0 mm 2 m/s 657 mmHg 14%
    14:00 +31°C° 0 mm 2 m/s 656 mmHg 13%
    15:00 +31°C° 0 mm 1 m/s 656 mmHg 13%
    16:00 +31°C° 0 mm 1 m/s 656 mmHg 12%
    17:00 +28°C° 0 mm 1 m/s 655 mmHg 15%
    18:00 +25°C° 0 mm 1 m/s 655 mmHg 18%
    19:00 +22°C° 0 mm 1 m/s 654 mmHg 21%
    20:00 +21°C° 0 mm 1 m/s 655 mmHg 22%
    21:00 +20°C° 0 mm 1 m/s 655 mmHg 24%
    22:00 +19°C° 0 mm 1 m/s 656 mmHg 25%
    23:00 +18°C° 0 mm 1 m/s 655 mmHg 28%

    Mâine, 28 Iulie, Vineri

    Timp Temperatura Precipitaţii Vânt Presiune Umiditate
    00:00 +16°C° 0 mm 1 m/s 655 mmHg 30%
    01:00 +15°C° 0 mm 1 m/s 655 mmHg 32%
    02:00 +15°C° 0 mm 1 m/s 655 mmHg 34%
    03:00 +14°C° 0 mm 1 m/s 654 mmHg 35%
    04:00 +13°C° 0 mm 1 m/s 654 mmHg 36%
    05:00 +13°C° 0 mm 1 m/s 654 mmHg 36%
    06:00 +13°C° 0 mm 1 m/s 654 mmHg 36%
    07:00 +13°C° 0 mm 1 m/s 655 mmHg 36%
    08:00 +17°C° 0 mm 2 m/s 656 mmHg 30%
    09:00 +21°C° 0 mm 3 m/s 657 mmHg 25%
    10:00 +26°C° 0 mm 4 m/s 658 mmHg 19%
    11:00 +28°C° 0 mm 3 m/s 657 mmHg 17%
    12:00 +29°C° 0 mm 3 m/s 657 mmHg 15%
    13:00 +31°C° 0 mm 3 m/s 657 mmHg 13%
    14:00 +31°C° 0 mm 3 m/s 656 mmHg 13%
    15:00 +31°C° 0 mm 2 m/s 656 mmHg 12%
    16:00 +31°C° 0 mm 2 m/s 655 mmHg 12%
    17:00 +28°C° 0 mm 2 m/s 655 mmHg 14%
    18:00 +26°C° 0 mm 1 m/s 655 mmHg 17%
    19:00 +23°C° 0 mm 1 m/s 655 mmHg 20%
    20:00 +21°C° 0 mm 1 m/s 655 mmHg 21%
    21:00 +20°C° 0 mm 1 m/s 655 mmHg 22%
    22:00 +18°C° 0 mm 2 m/s 655 mmHg 23%
    23:00 +18°C° 0 mm 2 m/s 655 mmHg 24%

    Poimâine, 29 Iulie, Sâmbătă

    Timp Temperatura Precipitaţii Vânt Presiune Umiditate
    00:00 +18°C° 0 mm 1 m/s 655 mmHg 26%
    01:00 +16°C° 0 mm 1 m/s 655 mmHg 27%
    02:00 +15°C° 0 mm 1 m/s 654 mmHg 29%
    03:00 +14°C° 0 mm 1 m/s 654 mmHg 31%
    04:00 +14°C° 0 mm 1 m/s 654 mmHg 33%
    05:00 +14°C° 0 mm 1 m/s 654 mmHg 34%
    06:00 +13°C° 0 mm 1 m/s 655 mmHg 35%
    07:00 +13°C° 0 mm 1 m/s 655 mmHg 36%
    08:00 +17°C° 0 mm 2 m/s 656 mmHg 30%
    09:00 +21°C° 0 mm 3 m/s 657 mmHg 24%
    10:00 +25°C° 0 mm 4 m/s 658 mmHg 18%
    11:00 +27°C° 0 mm 3 m/s 658 mmHg 16%
    12:00 +29°C° 0 mm 3 m/s 657 mmHg 14%
    13:00 +31°C° 0 mm 3 m/s 657 mmHg 12%
    14:00 +31°C° 0 mm 2 m/s 656 mmHg 12%
    15:00 +31°C° 0 mm 2 m/s 656 mmHg 11%
    16:00 +31°C° 0 mm 2 m/s 656 mmHg 10%
    17:00 +28°C° 0 mm 2 m/s 655 mmHg 13%
    18:00 +25°C° 0 mm 1 m/s 655 mmHg 15%
    19:00 +22°C° 0 mm 1 m/s 655 mmHg 18%
    20:00 +21°C° 0 mm 1 m/s 655 mmHg 19%
    21:00 +20°C° 0 mm 1 m/s 655 mmHg 20%
    22:00 +19°C° 0 mm 1 m/s 655 mmHg 21%
    23:00 +18°C° 0 mm 1 m/s 655 mmHg 23%

    30 Iulie, Duminică

    Timp Temperatura Precipitaţii Vânt Presiune Umiditate
    00:00 +16°C° 0 mm 1 m/s 655 mmHg 25%
    01:00 +15°C° 0 mm 1 m/s 654 mmHg 27%
    02:00 +15°C° 0 mm 1 m/s 654 mmHg 29%
    03:00 +14°C° 0 mm 1 m/s 654 mmHg 31%
    04:00 +13°C° 0 mm 1 m/s 653 mmHg 33%
    05:00 +13°C° 0 mm 1 m/s 654 mmHg 34%
    06:00 +13°C° 0 mm 1 m/s 654 mmHg 35%
    07:00 +13°C° 0 mm 1 m/s 655 mmHg 36%
    08:00 +17°C° 0 mm 2 m/s 656 mmHg 31%
    09:00 +21°C° 0 mm 3 m/s 657 mmHg 26%
    10:00 +26°C° 0 mm 3 m/s 658 mmHg 20%
    11:00 +28°C° 0 mm 3 m/s 657 mmHg 17%
    12:00 +30°C° 0 mm 2 m/s 657 mmHg 14%
    13:00 +32°C° 0 mm 2 m/s 657 mmHg 11%
    14:00 +32°C° 0 mm 1 m/s 656 mmHg 11%
    15:00 +32°C° 0 mm 1 m/s 656 mmHg 10%
    16:00 +32°C° 0 mm 1 m/s 655 mmHg 10%
    17:00 +29°C° 0 mm 1 m/s 655 mmHg 12%
    18:00 +26°C° 0 mm 1 m/s 654 mmHg 15%
    19:00 +22°C° 0 mm 1 m/s 654 mmHg 18%
    20:00 +22°C° 0 mm 1 m/s 654 mmHg 19%
    21:00 +21°C° 0 mm 1 m/s 655 mmHg 20%
    22:00 +20°C° 0 mm 1 m/s 655 mmHg 21%
    23:00 +19°C° 0 mm 1 m/s 654 mmHg 23%

    31 Iulie, Luni

    Timp Temperatura Precipitaţii Vânt Presiune Umiditate
    00:00 +18°C° 0 mm 1 m/s 654 mmHg 25%
    01:00 +16°C° 0 mm 1 m/s 654 mmHg 27%
    02:00 +15°C° 0 mm 1 m/s 653 mmHg 28%
    03:00 +15°C° 0 mm 1 m/s 653 mmHg 30%
    04:00 +14°C° 0 mm 1 m/s 653 mmHg 31%
    05:00 +14°C° 0 mm 1 m/s 653 mmHg 32%
    06:00 +14°C° 0 mm 1 m/s 654 mmHg 33%
    07:00 +14°C° 0 mm 1 m/s 654 mmHg 33%
    08:00 +18°C° 0 mm 2 m/s 655 mmHg 28%
    09:00 +23°C° 0 mm 2 m/s 656 mmHg 23%
    10:00 +27°C° 0 mm 3 m/s 657 mmHg 18%
    11:00 +29°C° 0 mm 3 m/s 657 mmHg 16%
    12:00 +31°C° 0 mm 2 m/s 657 mmHg 14%
    13:00 +34°C° 0 mm 2 m/s 656 mmHg 11%
    14:00 +33°C° 0 mm 1 m/s 656 mmHg 11%
    15:00 +33°C° 0 mm 1 m/s 655 mmHg 11%
    16:00 +33°C° 0 mm 1 m/s 655 mmHg 11%
    17:00 +30°C° 0 mm 1 m/s 655 mmHg 13%
    18:00 +27°C° 0 mm 1 m/s 654 mmHg 16%
    19:00 +24°C° 0 mm 1 m/s 654 mmHg 19%
    20:00 +22°C° 0 mm 1 m/s 655 mmHg 23%
    21:00 +21°C° 0 mm 1 m/s 655 mmHg 26%
    22:00 +19°C° 0 mm 2 m/s 655 mmHg 30%
    23:00 +19°C° 0 mm 1 m/s 655 mmHg 33%

    1 August, Marţi

    Timp Temperatura Precipitaţii Vânt Presiune Umiditate
    00:00 +18°C° 0 mm 1 m/s 655 mmHg 37%
    01:00 +18°C° 0 mm 1 m/s 654 mmHg 40%
    02:00 +16°C° 0 mm 1 m/s 654 mmHg 41%
    03:00 +16°C° 0 mm 1 m/s 654 mmHg 42%
    04:00 +15°C° 0 mm 1 m/s 654 mmHg 43%
    05:00 +15°C° 0 mm 1 m/s 654 mmHg 42%
    06:00 +15°C° 0 mm 1 m/s 655 mmHg 41%
    07:00 +15°C° 0 mm 1 m/s 655 mmHg 40%
    08:00 +20°C° 0 mm 1 m/s 656 mmHg 32%
    09:00 +24°C° 0 mm 2 m/s 657 mmHg 25%
    10:00 +28°C° 0 mm 2 m/s 658 mmHg 18%
    11:00 +29°C° 0 mm 2 m/s 657 mmHg 16%
    12:00 +31°C° 0 mm 2 m/s 657 mmHg 14%
    13:00 +34°C° 0 mm 2 m/s 656 mmHg 13%
    14:00 +34°C° 0 mm 2 m/s 656 mmHg 12%
    15:00 +33°C° 0 mm 1 m/s 656 mmHg 12%
    16:00 +33°C° 0 mm 1 m/s 655 mmHg 11%
    17:00 +30°C° 0 mm 1 m/s 655 mmHg 14%
    18:00 +27°C° 0 mm 1 m/s 655 mmHg 17%
    19:00 +24°C° 0 mm 1 m/s 655 mmHg 20%
    20:00 +23°C° 0 mm 1 m/s 655 mmHg 22%
    21:00 +22°C° 0 mm 1 m/s 655 mmHg 25%
    22:00 +20°C° 0 mm 2 m/s 655 mmHg 27%
    23:00 +19°C° 0 mm 2 m/s 655 mmHg 29%
    Arată mai mult